Terug naar catalogus

IRIDIUM 136

ActiefCommunicatiePO
NORAD 42962·PAYLOAD·🇺🇸 United States

Gelanceerd Oct 9, 2017 vanaf Vandenberg Space Force Base

Loading…

Volgende Passages (komende 24 uur)

TLE

VersSource: CelesTrak SupGP

Epoch: Sep 14, 2026, 22:10 UTC

1 42962C 17061H   26257.92395833 -.00000910  00000+0 -32544-3 0  2571
2 42962  86.4028 347.7606 0002153  97.2120 355.0982 14.34218182    15

Volg IRIDIUM 136 in realtime met AllMySat

Download on the App Store